Rocky Mount, NC

9:49 PM EDT on April 26, 2018 (GMT -0400)
Rocky Mount-Wilson Regional

Weather History for KRWI - September, 2013

Change the Weather History Date:

Tuesday, September 3, 2013

  Actual Average Record
Temperature  
Mean Temperature 77 °F -  
Max Temperature 88 °F 86 °F 97 °F (1980)
Min Temperature 66 °F 65 °F 45 °F (1967)
Cooling Degree Days 12    
Growing Degree Days 27 (Base 50)    
Moisture  
Dew Point 70 °F    
Average Humidity 88    
Maximum Humidity 100    
Minimum Humidity 51    
Precipitation  
Precipitation 0.01 in - - ()
Sea Level Pressure  
Sea Level Pressure 29.85 in    
Wind  
Wind Speed 2 mph (SSW)    
Max Wind Speed 14 mph    
Max Gust Speed 30 mph    
Visibility 5 miles    
Events Fog , Rain , Thunderstorm    
Averages and records for this station are not official NWS values.
T = Trace of Precipitation, MM = Missing Value Source: NWS Daily Summary

Daily Weather History Graph

Daily Weather History Graph

Search for Another Location

Airport or City:

Astronomy

Sep. 03, 2013 Rise Set
Actual Time 6:45 AM EDT 7:35 PM EDT
Civil Twilight 6:19 AM EDT 8:01 PM EDT
Nautical Twilight 5:48 AM EDT 8:32 PM EDT
Astronomical Twilight 5:16 AM EDT 9:04 PM EDT
Moon 4:58 AM EDT (9/3) 6:21 PM EDT (9/3)
Length of Visible Light 13h 42m
Length of Day
12h 50m
Waning Crescent, 3% of the Moon is Illuminated
Sep 3
Waning Crescent
Sep 5
New
Sep 12
First Quarter
Sep 19
Full
Sep 26
Last Quarter

Hourly Weather History & Observations

Time (EDT) Temp. Heat Index Dew Point Humidity Pressure Visibility Wind Dir Wind Speed Gust Speed Precip Events Conditions
12:53 AM 75.9 °F - 73.9 °F 94% 29.83 in 6.0 mi Calm Calm - N/A   Clear
1:53 AM 75.9 °F - 73.9 °F 94% 29.83 in 5.0 mi Calm Calm - N/A   Clear
2:53 AM 75.0 °F - 73.0 °F 94% 29.82 in 2.5 mi South 3.5 mph - N/A   Clear
3:00 AM 75.2 °F - 73.4 °F 94% 29.82 in 3.0 mi South 3.5 mph - N/A   Clear
3:17 AM 73.4 °F - 73.4 °F 100% 29.82 in 1.5 mi Calm Calm - N/A   Clear
3:20 AM 73.4 °F - 73.4 °F 100% 29.81 in 0.8 mi Calm Calm - N/A   Mist
3:40 AM 73.4 °F - 71.6 °F 94% 29.82 in 1.2 mi Calm Calm - N/A   Partly Cloudy
3:47 AM 73.4 °F - 71.6 °F 94% 29.82 in 3.0 mi South 3.5 mph - N/A   Partly Cloudy
3:53 AM 73.9 °F - 72.0 °F 93% 29.81 in 4.0 mi South 4.6 mph - N/A   Clear
4:14 AM 73.4 °F - 73.4 °F 100% 29.81 in 1.8 mi Calm Calm - N/A   Clear
4:16 AM 73.4 °F - 71.6 °F 94% 29.81 in 1.0 mi Calm Calm - N/A   Mist
4:23 AM 73.4 °F - 71.6 °F 94% 29.81 in 0.5 mi Calm Calm - N/A Fog Fog
4:30 AM 73.4 °F - 71.6 °F 94% 29.81 in 1.5 mi Calm Calm - N/A   Partly Cloudy
4:38 AM 71.6 °F - 71.6 °F 100% 29.81 in 2.5 mi South 3.5 mph - N/A   Partly Cloudy
4:53 AM 73.0 °F - 72.0 °F 96% 29.81 in 3.0 mi Calm Calm - N/A   Clear
5:05 AM 73.4 °F - 71.6 °F 94% 29.81 in 1.8 mi Calm Calm - N/A   Clear
5:13 AM 71.6 °F - 71.6 °F 100% 29.81 in 0.2 mi Calm Calm - N/A Fog Fog
5:22 AM 73.4 °F - 71.6 °F 94% 29.82 in 0.8 mi Calm Calm - N/A   Mist
5:26 AM 71.6 °F - 71.6 °F 100% 29.82 in 1.2 mi South 3.5 mph - N/A   Partly Cloudy
5:33 AM 73.4 °F - 71.6 °F 94% 29.82 in 3.0 mi Calm Calm - N/A   Partly Cloudy
5:53 AM 73.0 °F - 72.0 °F 96% 29.82 in 2.5 mi Calm Calm - N/A   Clear
6:04 AM 73.4 °F - 73.4 °F 100% 29.82 in 3.0 mi Calm Calm - N/A   Clear
6:53 AM 73.9 °F - 73.0 °F 97% 29.82 in 2.5 mi South 4.6 mph - 0.01 in   Clear
7:11 AM 73.4 °F - 73.4 °F 100% 29.83 in 3.0 mi South 5.8 mph - N/A   Clear
7:53 AM 75.0 °F - 73.9 °F 96% 29.84 in 4.0 mi South 5.8 mph - N/A   Clear
8:53 AM 77.0 °F - 73.9 °F 90% 29.87 in 4.0 mi SSW 9.2 mph - N/A   Partly Cloudy
9:03 AM 77.0 °F - 75.2 °F 94% 29.87 in 5.0 mi SSW 8.1 mph - N/A   Scattered Clouds
9:53 AM 78.1 °F - 73.9 °F 87% 29.87 in 6.0 mi SW 4.6 mph - N/A   Partly Cloudy
10:53 AM 82.0 °F 87.9 °F 73.9 °F 76% 29.88 in 8.0 mi WSW 5.8 mph - N/A   Partly Cloudy
11:06 AM 80.6 °F 85.4 °F 73.4 °F 79% 29.88 in 8.0 mi WSW 6.9 mph - N/A Thunderstorm Mostly Cloudy
11:53 AM 80.1 °F 83.8 °F 72.0 °F 76% 29.87 in 10.0 mi South 4.6 mph - 0.00 in Thunderstorm Clear
12:02 PM 80.6 °F 84.6 °F 71.6 °F 74% 29.87 in 10.0 mi SSW 4.6 mph - N/A   Clear
12:53 PM 86.0 °F 91.5 °F 71.1 °F 61% 29.86 in 10.0 mi West 6.9 mph - N/A   Clear
1:53 PM 82.0 °F 83.4 °F 64.0 °F 54% 29.84 in 10.0 mi WNW 8.1 mph - N/A   Clear
2:00 PM 82.4 °F 83.4 °F 62.6 °F 51% 29.85 in 10.0 mi WNW 10.4 mph - N/A Thunderstorm Partly Cloudy
2:21 PM 78.8 °F - 64.4 °F 61% 29.84 in 10.0 mi West 4.6 mph - N/A   Partly Cloudy
2:53 PM 79.0 °F - 64.9 °F 62% 29.82 in 10.0 mi Calm Calm - N/A   Clear
3:53 PM 84.0 °F 87.0 °F 68.0 °F 58% 29.82 in 10.0 mi Calm Calm - N/A   Clear
4:53 PM 82.0 °F 85.9 °F 70.0 °F 67% 29.83 in 10.0 mi Calm Calm - N/A   Partly Cloudy
5:18 PM 82.4 °F 86.3 °F 69.8 °F 66% 29.84 in 10.0 mi North 5.8 mph - N/A Thunderstorm Clear
5:53 PM 79.0 °F - 63.0 °F 58% 29.84 in 10.0 mi North 13.8 mph 29.9 mph 0.00 in Rain , Thunderstorm Light Thunderstorms and Rain
6:06 PM 73.4 °F - 66.2 °F 78% 29.84 in 10.0 mi NE 3.5 mph - 0.00 in Rain Light Rain
6:13 PM 75.2 °F - 66.2 °F 73% 29.84 in 10.0 mi Calm Calm - 0.00 in Thunderstorm Mostly Cloudy
6:30 PM 73.4 °F - 68.0 °F 83% 29.85 in 10.0 mi East 3.5 mph - 0.00 in Rain Light Rain
6:53 PM 73.0 °F - 69.1 °F 87% 29.86 in 10.0 mi Calm Calm - 0.00 in   Clear
7:53 PM 73.0 °F - 70.0 °F 90% 29.88 in 8.0 mi Calm Calm - N/A   Clear
8:53 PM 70.0 °F - 69.1 °F 97% 29.89 in 7.0 mi Calm Calm - N/A   Clear
9:53 PM 70.0 °F - 69.1 °F 97% 29.92 in 6.0 mi Calm Calm - N/A   Clear
10:18 PM 69.8 °F - 68.0 °F 94% 29.93 in 1.5 mi Calm Calm - N/A   Clear
10:35 PM 69.8 °F - 68.0 °F 94% 29.93 in 2.5 mi Calm Calm - N/A   Clear
10:42 PM 69.8 °F - 68.0 °F 94% 29.93 in 5.0 mi Calm Calm - N/A   Clear
10:53 PM 69.1 °F - 68.0 °F 96% 29.93 in 4.0 mi Calm Calm - N/A   Clear
11:02 PM 69.8 °F - 68.0 °F 94% 29.93 in 2.0 mi Calm Calm - N/A   Clear
11:08 PM 68.0 °F - 66.2 °F 94% 29.94 in 0.8 mi Calm Calm - N/A   Clear
11:25 PM 68.0 °F - 68.0 °F 100% 29.94 in 2.0 mi Calm Calm - N/A   Clear
11:29 PM 68.0 °F - 66.2 °F 94% 29.94 in 0.8 mi Calm Calm - N/A   Clear
11:39 PM 68.0 °F - 66.2 °F 94% 29.94 in 2.0 mi Calm Calm - N/A   Clear
11:53 PM 66.9 °F - 66.0 °F 97% 29.94 in 1.2 mi Calm Calm - N/A   Clear